Current weather by "City, St" or "zip code"  
 
Advertise Here

Current Conditions: Deer Park, Deer Park Airport, WA

Fair


65.0 F

Last Updated on May 30 2020, 12:53 am PDT
Humidity: 61%
Wind Speed: N 0.0 mph
Barometer 29.85 in
Dewpoint: 51.1 F
Visibility: 10.00 mi
Precip: --
Heat Index: NA
Wind Chill: NA
Current conditions at:

Deer Park, Deer Park Airport, WA (KDEW)

Lat: 47.97417 Lon: 117.42833

Local Radar Image active severe weather and emergency alerts image image weather storm and storm spotter reports image weather observation monitoring service image
Local
Radar
Active
Alerts
Storm Reports Obs
Monitoring

Sign-up For Email & Text Message Weather Alert Notification Services


Advertise Here

Observation History for Deer Park, Deer Park Airport, WA


Time Wind
(mph)
Vis
(mi)
Weather Precip (in) Temperature (F) Relative
Humidity
Wind
Chill
(F)
Heat
Index
(F)
Pressure
Air Dwpt altimeter
(in)
sea level
(mb)
Rmks
12:53 am PDT N 0.0 10.00 Fair -- 65.0 51.1 61% NA NA 29.85 1009.2
11:53 pm PDT NE 3.5 10.00 Fair -- 63.0 52.0 68% NA NA 29.85 1009.5
10:53 pm PDT N 0.0 10.00 Fair -- 65.0 54.0 68% NA NA 29.86 1009.7
9:53 pm PDT N 0.0 10.00 Fair -- 66.0 54.0 65% NA NA 29.87 1010.1
8:53 pm PDT N 0.0 10.00 Fair -- 67.0 57.0 71% NA NA 29.86 1009.9
7:53 pm PDT N 0.0 10.00 Fair -- 78.0 59.0 52% NA NA 29.87 1009.9
6:53 pm PDT N 0.0 10.00 Fair -- 84.0 48.9 30% NA 82 29.88 1010.1
5:53 pm PDT W 6.9 10.00 Fair -- 84.0 48.9 30% NA 82 29.88 1010.5
4:53 pm PDT S 4.6 10.00 Fair -- 85.0 46.9 27% NA 83 29.89 1011.0
3:53 pm PDT N 3.5 10.00 Fair -- 87.0 42.1 21% NA 84 29.91 1011.3
2:53 pm PDT 4.6 10.00 Fair -- 84.0 44.1 25% NA 82 29.92 1012.1
1:53 pm PDT N 0.0 10.00 Fair -- 82.0 48.0 31% NA 81 29.95 1013.1
12:53 pm PDT 4.6 10.00 Fair -- 80.0 45.0 29% NA 79 29.97 1013.9
11:53 am PDT SW 4.6 10.00 Fair -- 78.0 44.1 30% NA NA 29.99 1014.4
10:53 am PDT 10.00 Fair -- 76.0 42.1 30% NA NA 29.99 1014.7
9:53 am PDT 5.8 10.00 Fair -- 73.0 43.0 34% NA NA 30.00 1015.1
8:53 am PDT N 6.9 10.00 Fair -- 70.0 43.0 38% NA NA 30.01 1015.2
7:53 am PDT N 11.5 10.00 Fair -- 66.0 42.1 42% NA NA 30.00 1014.8
6:53 am PDT NE 6.9 10.00 Fair -- 62.0 43.0 50% 62 NA 30.01 1014.9
5:53 am PDT 10.00 Fair -- 56.0 42.1 60% NA NA 30.00 1014.9
4:53 am PDT 10.00 Fair -- 52.0 42.1 69% NA NA 30.00 1014.9
3:53 am PDT N 6.9 10.00 Fair -- 55.0 43.0 64% 53 NA 29.99 1014.5
2:53 am PDT NW 4.6 10.00 Fair -- 54.0 44.1 69% 53 NA 29.99 1014.7
1:53 am PDT N 0.0 10.00 Fair -- 52.0 42.1 69% NA NA 29.99 1014.6

Regional Weather Observation


Spokane, Felts Field, WA (KSFF)

Fair
64.0 F

Fairchild Air Force Base, WA (KSKA)

A Few Clouds
69.0 F

Spokane, Spokane International Airport, WA (KGEG)

Mostly Cloudy
70.0 F

Sandpoint, Sandpoint Airport, ID (KSZT)

Fair
55.0 F

Coeur dAlene Airport - Pappy Boyington Field, ID (KCOE)

Fair
64.0 F

Boundary County Airport, ID (K65S)

Fair
55.0 F